When you browse on this site, cookies collect data to enhance your experience and personalize the content and advertising you see.
Visit our Privacy Policy to learn more. By continuing to use the site, you agree to this use of cookies and data.
  • In Latvia
  • List of Countries
  • For 7 days
  • Water Temperature
  • Satellite Maps
  • Weather Map
  • Weather Widgets
  • user-avatar
    Login

    Hourly Weather Glarus

    Today, 18 January, Friday

    Time Temperature Precipitation Wind Pressure Humidity
    00:00 -1°C° 0.1 mm 2 mps 710 mmHg 96%
    01:00 0°C° 0.1 mm 1 mps 710 mmHg 95%
    02:00 0°C° 0.2 mm 1 mps 710 mmHg 96%
    03:00 -1°C° 0.2 mm 1 mps 711 mmHg 96%
    04:00 -1°C° 0.2 mm 1 mps 711 mmHg 96%
    05:00 -1°C° 0.2 mm 1 mps 711 mmHg 97%
    06:00 -1°C° 0.2 mm 1 mps 712 mmHg 97%
    07:00 -1°C° 0.2 mm 1 mps 712 mmHg 97%
    08:00 0°C° 0.1 mm 1 mps 712 mmHg 96%
    09:00 0°C° 0.1 mm 1 mps 712 mmHg 94%
    10:00 0°C° 0.1 mm 1 mps 712 mmHg 93%
    11:00 +1°C° 0 mm 1 mps 712 mmHg 90%
    12:00 +1°C° 0 mm 1 mps 712 mmHg 87%
    13:00 +2°C° 0 mm 1 mps 712 mmHg 84%
    14:00 +1°C° 0 mm 1 mps 712 mmHg 85%
    15:00 +1°C° 0 mm 1 mps 712 mmHg 87%
    16:00 +1°C° 0 mm 1 mps 712 mmHg 88%
    17:00 -1°C° 0 mm 1 mps 712 mmHg 89%
    18:00 -2°C° 0 mm 1 mps 712 mmHg 90%
    19:00 -4°C° 0 mm 1 mps 712 mmHg 90%
    20:00 -6°C° 0 mm 2 mps 712 mmHg 85%
    21:00 -6°C° 0 mm 2 mps 712 mmHg 81%
    22:00 -6°C° 0 mm 2 mps 712 mmHg 76%
    23:00 -6°C° 0 mm 2 mps 712 mmHg 76%

    Tomorrow, 19 January, Saturday

    Time Temperature Precipitation Wind Pressure Humidity
    00:00 -6°C° 0 mm 2 mps 712 mmHg 75%
    01:00 -5°C° 0 mm 2 mps 712 mmHg 75%
    02:00 -5°C° 0 mm 2 mps 712 mmHg 77%
    03:00 -5°C° 0 mm 2 mps 712 mmHg 78%
    04:00 -4°C° 0 mm 2 mps 711 mmHg 79%
    05:00 -4°C° 0 mm 2 mps 711 mmHg 81%
    06:00 -4°C° 0 mm 2 mps 711 mmHg 82%
    07:00 -4°C° 0 mm 2 mps 711 mmHg 83%
    08:00 -3°C° 0 mm 2 mps 711 mmHg 84%
    09:00 0°C° 0 mm 1 mps 711 mmHg 84%
    10:00 +1°C° 0 mm 1 mps 711 mmHg 84%
    11:00 +2°C° 0 mm 1 mps 711 mmHg 83%
    12:00 +4°C° 0 mm 1 mps 710 mmHg 81%
    13:00 +5°C° 0 mm 1 mps 710 mmHg 79%
    14:00 +4°C° 0 mm 1 mps 709 mmHg 82%
    15:00 +3°C° 0 mm 0 mps 709 mmHg 85%
    16:00 +2°C° 0 mm 0 mps 709 mmHg 88%
    17:00 +2°C° 0 mm 1 mps 709 mmHg 87%
    18:00 0°C° 0 mm 1 mps 709 mmHg 87%
    19:00 -3°C° 0 mm 2 mps 709 mmHg 86%
    20:00 -3°C° 0 mm 2 mps 709 mmHg 85%
    21:00 -4°C° 0 mm 2 mps 709 mmHg 84%
    22:00 -4°C° 0 mm 2 mps 709 mmHg 82%
    23:00 -4°C° 0 mm 2 mps 709 mmHg 82%

    Day after tomorrow, 20 January, Sunday

    Time Temperature Precipitation Wind Pressure Humidity
    00:00 -4°C° 0 mm 2 mps 709 mmHg 81%
    01:00 -3°C° 0 mm 2 mps 709 mmHg 81%
    02:00 -4°C° 0 mm 2 mps 709 mmHg 80%
    03:00 -4°C° 0 mm 2 mps 709 mmHg 80%
    04:00 -4°C° 0 mm 2 mps 709 mmHg 80%
    05:00 -4°C° 0 mm 2 mps 709 mmHg 79%
    06:00 -4°C° 0 mm 2 mps 709 mmHg 79%
    07:00 -4°C° 0 mm 2 mps 709 mmHg 78%
    08:00 -3°C° 0 mm 2 mps 709 mmHg 78%
    09:00 -1°C° 0 mm 2 mps 710 mmHg 79%
    10:00 +2°C° 0 mm 1 mps 710 mmHg 80%
    11:00 +3°C° 0 mm 1 mps 710 mmHg 78%
    12:00 +3°C° 0 mm 0 mps 710 mmHg 77%
    13:00 +4°C° 0 mm 0 mps 710 mmHg 75%
    14:00 +4°C° 0 mm 0 mps 710 mmHg 80%
    15:00 +3°C° 0 mm 0 mps 710 mmHg 84%
    16:00 +4°C° 0 mm 1 mps 709 mmHg 89%
    17:00 +3°C° 0 mm 1 mps 710 mmHg 90%
    18:00 +2°C° 0 mm 1 mps 710 mmHg 91%
    19:00 0°C° 0 mm 1 mps 711 mmHg 91%
    20:00 0°C° 0 mm 1 mps 711 mmHg 90%
    21:00 0°C° 0 mm 1 mps 711 mmHg 89%
    22:00 -1°C° 0 mm 1 mps 712 mmHg 88%
    23:00 -1°C° 0 mm 1 mps 712 mmHg 87%

    21 January, Monday

    Time Temperature Precipitation Wind Pressure Humidity
    00:00 -1°C° 0 mm 1 mps 712 mmHg 86%
    01:00 -1°C° 0 mm 1 mps 713 mmHg 85%
    02:00 -2°C° 0 mm 1 mps 713 mmHg 85%
    03:00 -2°C° 0 mm 1 mps 713 mmHg 84%
    04:00 -2°C° 0 mm 1 mps 713 mmHg 84%
    05:00 -3°C° 0 mm 1 mps 713 mmHg 84%
    06:00 -3°C° 0 mm 1 mps 713 mmHg 84%
    07:00 -3°C° 0 mm 1 mps 713 mmHg 84%
    08:00 -2°C° 0 mm 1 mps 714 mmHg 83%
    09:00 -1°C° 0 mm 1 mps 714 mmHg 83%
    10:00 0°C° 0 mm 1 mps 714 mmHg 83%
    11:00 +1°C° 0 mm 1 mps 714 mmHg 83%
    12:00 +2°C° 0 mm 1 mps 714 mmHg 82%
    13:00 +4°C° 0 mm 1 mps 714 mmHg 82%
    14:00 +3°C° 0 mm 1 mps 713 mmHg 85%
    15:00 +3°C° 0 mm 1 mps 713 mmHg 89%
    16:00 +3°C° 0 mm 1 mps 713 mmHg 92%
    17:00 +2°C° 0.1 mm 1 mps 713 mmHg 94%
    18:00 0°C° 0.1 mm 0 mps 714 mmHg 95%
    19:00 -1°C° 0.1 mm 0 mps 714 mmHg 96%
    20:00 -2°C° 0 mm 0 mps 714 mmHg 96%
    21:00 -2°C° 0 mm 1 mps 714 mmHg 95%
    22:00 -2°C° 0 mm 1 mps 714 mmHg 94%
    23:00 -3°C° 0 mm 1 mps 713 mmHg 92%

    22 January, Tuesday

    Time Temperature Precipitation Wind Pressure Humidity
    00:00 -3°C° 0 mm 1 mps 713 mmHg 90%
    01:00 -6°C° 0 mm 2 mps 712 mmHg 87%
    02:00 -6°C° 0 mm 2 mps 711 mmHg 85%
    03:00 -7°C° 0 mm 2 mps 710 mmHg 83%
    04:00 -7°C° 0 mm 2 mps 710 mmHg 81%
    05:00 -7°C° 0 mm 2 mps 709 mmHg 79%
    06:00 -7°C° 0 mm 2 mps 708 mmHg 77%
    07:00 -8°C° 0 mm 2 mps 708 mmHg 75%
    08:00 -6°C° 0 mm 2 mps 707 mmHg 75%
    09:00 -5°C° 0 mm 2 mps 707 mmHg 74%
    10:00 -3°C° 0 mm 2 mps 706 mmHg 73%
    11:00 0°C° 0 mm 1 mps 705 mmHg 69%
    12:00 +2°C° 0 mm 1 mps 703 mmHg 65%
    13:00 +3°C° 0 mm 0 mps 702 mmHg 61%
    14:00 +2°C° 0 mm 0 mps 701 mmHg 66%
    15:00 +2°C° 0 mm 0 mps 700 mmHg 71%
    16:00 +1°C° 0 mm 0 mps 699 mmHg 76%
    17:00 +1°C° 0 mm 1 mps 699 mmHg 77%
    18:00 0°C° 0 mm 1 mps 699 mmHg 77%
    19:00 -2°C° 0 mm 1 mps 699 mmHg 78%
    20:00 -2°C° 0 mm 1 mps 699 mmHg 82%
    21:00 -3°C° 0 mm 1 mps 699 mmHg 86%
    22:00 -3°C° 0 mm 1 mps 699 mmHg 90%
    23:00 -3°C° 0.4 mm 1 mps 699 mmHg 91%

    23 January, Wednesday

    Time Temperature Precipitation Wind Pressure Humidity
    00:00 -4°C° 0.4 mm 2 mps 699 mmHg 93%
    01:00 -4°C° 0.4 mm 2 mps 698 mmHg 95%
    02:00 -4°C° 0.5 mm 2 mps 698 mmHg 95%
    03:00 -4°C° 0.5 mm 2 mps 698 mmHg 96%
    04:00 -3°C° 0.5 mm 1 mps 697 mmHg 96%
    05:00 -3°C° 0.5 mm 1 mps 697 mmHg 96%
    06:00 -3°C° 0.5 mm 1 mps 696 mmHg 96%
    07:00 -3°C° 0.5 mm 1 mps 696 mmHg 95%
    08:00 -3°C° 0.5 mm 1 mps 696 mmHg 95%
    09:00 -3°C° 0.5 mm 1 mps 695 mmHg 95%
    10:00 -3°C° 0.5 mm 1 mps 695 mmHg 94%
    11:00 -4°C° 0.6 mm 2 mps 694 mmHg 94%
    12:00 -4°C° 0.6 mm 2 mps 694 mmHg 94%
    13:00 -4°C° 0.6 mm 2 mps 693 mmHg 94%
    14:00 -4°C° 0.9 mm 2 mps 693 mmHg 94%
    15:00 -4°C° 0.9 mm 2 mps 692 mmHg 95%
    16:00 -4°C° 0.9 mm 2 mps 692 mmHg 96%
    17:00 -4°C° 1 mm 2 mps 692 mmHg 96%
    18:00 -5°C° 1 mm 3 mps 692 mmHg 97%
    19:00 -6°C° 1 mm 3 mps 691 mmHg 97%
    20:00 -5°C° 1.1 mm 2 mps 692 mmHg 97%
    21:00 -5°C° 1.1 mm 2 mps 692 mmHg 97%
    22:00 -5°C° 1.1 mm 2 mps 692 mmHg 97%
    23:00 -5°C° 0.7 mm 2 mps 692 mmHg 97%
    Show more